{"data":{"norad_id":58910,"intl_designator":"2024-023F","name":"GEESAT-2 06","alt_names":[],"object_type":"PAYLOAD","status":"ACTIVE","operator":null,"country":"PRC","launch_date":"2024-02-02","launch_site_code":"XICLF","launch_vehicle":null,"mission":null,"orbit_class":"UNKNOWN","rcs_meters":null,"size_class":null,"mass_kg":null,"dimensions":null,"purposes":[],"wikipedia_slug":null,"has_3d_model":false,"image_url":null,"decayed_at":null,"tle_current":{"epoch":"2026-09-22T21:01:35.434848Z","epoch_age_seconds":47003,"freshness":"FRESH","line1":"1 58910U 24023F   26265.87610457  .00003884  00000+0  28983-3 0  9998","line2":"2 58910  49.9875 191.8682 0005888  79.5309 280.6302 15.04934020144350","mean_motion":15.0493402,"eccentricity":0.0005888,"inclination_deg":49.9875,"raan_deg":191.8682,"arg_perigee_deg":79.5309,"mean_anomaly_deg":280.6302,"bstar":0.00028983,"rev_number":14435,"period_min":95.685258015498,"perigee_km":547.62792950303,"apogee_km":555.78851523689,"semimajor_km":6929.84522237,"source":"CELESTRAK","updated_at":"2026-09-23T09:00:19.071004Z"}}}